Flag for Germany Weather past 2 weeks in Duisburg, North Rhine-Westphalia, Germany

Now
57 °F

Clear.


Feels Like: 57 °F
Forecast: 51 / 64 °F
Wind: 3 mph from Northwest

Location: Duesseldorf

Current Time: Apr 25, 2015 at 4:04:14 AM

Latest Report: Apr 25, 2015 at 3:20 AM


Visibility: 10 mi

Pressure: 29.80 "Hg

Humidity: 82%

Dew point: 52 °F

Location of DuisburgLocation

Historic Weather in Duisburg — Graph

°F

Duisburg temperature yesterday

Maximum temperature yesterday: 70 °F (at 3:20 PM)
Minimum temperature yesterday: 39 °F (at 4:20 AM)
Average temperature yesterday: 57 °F

Past Weeks' High & Low Weather Summary

 TemperatureHumidityPressure
High75 °F (Apr 15, 3:20 PM)100% (Apr 23, 6:20 AM)30.48 "Hg (Apr 23, 6:20 AM)
Low36 °F (Apr 18, 4:50 AM)23% (Apr 21, 3:20 PM)29.80 "Hg (Apr 24, 7:50 PM)
Average53 °F61%30.19 "Hg
* Reported Apr 10 2:20 AM — Apr 25 2:20 AM, Duisburg, Weather by CustomWeather, © 2015

Note: Actual official high and low records may vary slightly from our data, if they occured in-between our weather recording intervals... More about our weather records

Advertising

Duisburg weather history for previous 24 hours

 ConditionsComfort  
Time TempWeatherWind HumidityBarometerVisibility
2:20 AM
Sat, Apr 25
59 °FLight rain. Clear.No wind77%29.80 "HgN/A
1:50 AM61 °FClear.3 mph72%29.80 "Hg10 mi
1:20 AM61 °FLight rain. Clear.7 mph68%29.80 "HgN/A
12:50 AM63 °FLight rain. Clear.12 mph59%29.80 "HgN/A
12:20 AM63 °FClear.10 mph56%29.80 "Hg10 mi
11:50 PM
Fri, Apr 24
61 °FClear.10 mph55%29.80 "Hg10 mi
11:20 PM61 °FClear.8 mph55%29.80 "Hg10 mi
10:50 PM63 °FClear.8 mph56%29.80 "Hg10 mi
10:20 PM63 °FClear.8 mph52%29.80 "Hg10 mi
9:50 PM64 °FClear.7 mph49%29.80 "Hg10 mi
9:20 PM63 °FSunny.7 mph52%29.80 "Hg10 mi
8:50 PM63 °FSunny.6 mph52%29.80 "Hg10 mi
8:20 PM64 °FSunny.6 mph49%29.80 "Hg10 mi
7:50 PM66 °FSunny.8 mph46%29.80 "Hg10 mi
7:20 PM68 °FSunny.6 mph43%29.83 "Hg10 mi
6:50 PM68 °FSunny.7 mph38%29.83 "Hg10 mi
6:20 PM70 °FSunny.7 mph31%29.83 "Hg10 mi
5:50 PM70 °FSunny.8 mph31%29.83 "Hg10 mi
5:20 PM70 °FSunny.9 mph29%29.83 "Hg10 mi
4:50 PM70 °FSunny.8 mph27%29.86 "Hg10 mi
4:20 PM70 °FSunny.10 mph29%29.86 "Hg10 mi
3:50 PM70 °FSunny.12 mph29%29.86 "Hg10 mi
3:20 PM70 °FSunny.10 mph29%29.89 "Hg10 mi
2:50 PM68 °FSunny.13 mph33%29.89 "Hg10 mi
2:20 PM68 °FSunny.9 mph35%29.89 "Hg10 mi
1:50 PM66 °FSunny.12 mph37%29.89 "Hg10 mi
1:20 PM66 °FSunny.9 mph40%29.92 "Hg10 mi
12:50 PM64 °FSunny.12 mph40%29.92 "Hg10 mi
12:20 PM63 °FSunny.7 mph49%29.92 "Hg10 mi
11:50 AM63 °FSunny.6 mph49%29.92 "Hg10 mi
11:20 AM59 °FSunny.7 mph55%29.95 "Hg10 mi
10:50 AM57 °FSunny.6 mph59%29.95 "Hg10 mi
10:20 AM57 °FSunny.6 mph59%29.95 "Hg10 mi
9:50 AM55 °FSunny.6 mph63%29.95 "Hg10 mi
9:20 AM52 °FClear.7 mph72%29.95 "Hg6 mi
8:50 AM52 °FClear.8 mph72%29.95 "Hg6 mi
8:20 AM50 °FClear.9 mph76%29.95 "Hg6 mi
7:50 AM48 °FClear.8 mph82%29.95 "Hg5 mi
7:20 AM46 °FClear.8 mph82%29.95 "Hg5 mi
6:50 AM45 °FFog.8 mph87%29.95 "Hg4 mi
6:20 AM45 °FFog.9 mph87%29.95 "Hg4 mi
5:50 AM39 °FFog.3 mph87%29.95 "HgN/A
5:20 AM41 °FFog.3 mph93%29.95 "HgN/A
4:50 AM39 °FFog.3 mph93%29.95 "HgN/A
4:20 AM39 °FFog.3 mph93%29.98 "HgN/A
Weather by CustomWeather, © 2015

See weather overviewHow to use our weather pages